Location: Bieg
(49.3499°N, 10.3835°E)
Time: 10:32:04
(UTC+00:00)

Cosmos 1346 Rocket - Pass Details

Date: 21 August 2024
Orbit: 503 x 516 km, 81.2° (Epoch: 10 September)

Event Time Altitude Azimuth Distance (km) Brightness Sun altitude
Exits shadow 00:39:13 42° 27° (NNE) 733 3.8 -26.3°
Drops below altitude 10° 00:41:51 10° 15° (NNE) 1,730 6.4 -26.2°
Sets 00:43:59 0° 14° (NNE) 2,622 7.6 -26.0°
